Location: Gebenbach
(49.5378°N, 11.8735°E)
Time: 05:09:50
(UTC+00:00)

SJ 16-02 - Pass Details

Date: 29 October 2020
Orbit: 605 x 617 km, 75.0° (Epoch: 25 November)

Event Time Altitude Azimuth Distance (km) Brightness Sun altitude
Rises 18:30:13 0° 344° (NNW) 2,898 5.1 -25.6°
Reaches altitude 10° 18:32:42 10° 355° (N) 1,989 4.1 -26.0°
Enters shadow 18:33:43 16° 3° (N) 1,653 3.6 -26.2°
